Regional Weather Roundup
Issued by NWS Cleveland, OH

Home | Current Version | Previous Version | Text Only | Print | Product List | Glossary Off
Versions: 1 2 3 4 5 6 7 8 9 10 11 12 13 14 15 16 17 18 19 20 21 22 23 24 25 26 27 28 29 30 31 32 33 34 35 36 37 38 39 40 41 42 43 44 45 46 47 48 49 50

000
ASUS41 KCLE 280410
RWRCLE
OHIO REGIONAL WEATHER ROUNDUP
NATIONAL WEATHER SERVICE WILMINGTON, OH
1200 AM EDT TUE APR 28 2015

NOTE: "FAIR" INDICATES FEW OR NO CLOUDS BELOW 12,000 FEET WITH NO
SIGNIFICANT WEATHER AND/OR OBSTRUCTIONS TO VISIBILITY.

OHZ001>008-015>018-024>027-034-035-043-044-280500-
   NORTHWEST OHIO

CITY           SKY/WX    TMP DP  RH WIND       PRES   REMARKS
DEFIANCE       CLEAR     41  33  73 CALM      30.10R
FINDLAY        CLEAR     41  33  73 NW3       30.08S
TOLEDO EXPRESS CLEAR     39  33  79 CALM      30.09R
TOLEDO EXEC    CLEAR     44  34  67 NE5       30.10R
LIMA           CLEAR     39  34  82 N3        30.08S
$$

OHZ009>014-019>023-028>033-038-089-280500-
   NORTHEAST OHIO

CITY           SKY/WX    TMP DP  RH WIND       PRES   REMARKS
CLE-HOPKINS    CLOUDY    43  35  73 N5        30.10R
CLE-LAKEFRONT  CLOUDY    44  36  73 CALM      30.07R
CUY CO. ARPT   NOT AVBL
LORAIN-ELYRIA  MOCLDY    41  34  76 N3        30.08S
ASHTABULA      CLOUDY    42  36  79 NW7       30.04S
AKRON-CANTON   CLOUDY    42  35  76 N9        30.05R
WOOSTER        CLOUDY    39  35  86 N8        30.07R
MANSFIELD      CLOUDY    41  35  79 N7        30.07R
YOUNGSTOWN     CLOUDY    41  36  82 NW9       30.03R
$$

OHZ042-051>053-060>062-070>072-077>081-280500-
  SOUTHWEST OHIO

CITY           SKY/WX    TMP DP  RH WIND       PRES   REMARKS
CINC-COVINGTON MOCLDY    50  37  61 NE9       30.06S
CINC-LUNKEN    CLOUDY    49  38  65 NE9       30.08S
HAMILTON       CLEAR     45  37  73 NE3       30.09R
DAYTON         PTCLDY    43  36  76 N7        30.08S
WRIGHT-PAT AFB CLEAR     43  36  75 NE8       30.08R
DAYTON GENERAL CLEAR     43  36  76 NE6       30.07R
WILMINGTON     PTCLDY    42  35  76 NE7       30.07R
$$

OHZ036-037-039>041-045>050-054>059-063>069-073>076-082>088-280500-
  CENTRAL AND SOUTHEAST OHIO

CITY           SKY/WX    TMP DP  RH WIND       PRES   REMARKS
COLUMBUS       PTCLDY    42  34  73 N3        30.07S
OSU AIRPORT    CLEAR     39  33  79 N7        30.07S
BOLTON FIELD   CLEAR     40  34  79 N6        30.07F
RICKENBACK AFB CLEAR     41  33  74 N5        30.07S
NEWARK         CLEAR     35  32  88 CALM      30.06S
MARION         CLEAR     36  31  82 CALM      30.08R
LANCASTER      CLEAR     36  33  89 CALM      30.07S
ZANESVILLE     CLOUDY    39  33  79 CALM      30.06R
NEW PHILLY     CLOUDY    44  34  67 NW7       30.06S
$$



USA.gov is the U.S. government's official web portal to all federal, state and local government web resources and services.